Miscellaneous Local Product
Issued by NWS Hastings, NE

Home | Current Version | Previous Version | Graphics & Text | Print | Product List | Glossary Off
Versions: 1 2 3 4 5 6 7 8 9 10 11 12 13 14 15 16 17 18 19 20 21 22 23 24 25 26 27 28 29 30 31 32 33 34 35 36 37 38 39 40 41 42 43 44 45 46 47 48 49 50

000
AXUS43 KGID 291102
MISGRI

GID CWA HOURLY WEATHER ROUNDUP
NATIONAL WEATHER SERVICE HASTINGS NE
500 AM CST THU JAN 29 2015

NOTE: "FAIR" INDICATES FEW OR NO CLOUDS BELOW 12,000 FEET WITH NO
SIGNIFICANT WEATHER AND/OR OBSTRUCTIONS TO VISIBILITY.

...SOUTH CENTRAL NEBRASKA...

CITY           SKY/WX    TMP DP  RH WIND       PRES   REMARKS
GRAND ISLAND   CLOUDY    38  28  67 N25G35    30.26R WCI  27
HASTINGS       CLOUDY    38  28  67 N22G31    30.25R WCI  27
KEARNEY        CLOUDY    37  25  60 N21G32    30.28R WCI  27
ORD            CLOUDY    37  25  61 NW30G39   30.27R WCI  24
YORK           CLOUDY    37  30  75 N16G31    30.23R WCI  28
AURORA         CLOUDY    37  29  72 N22G32    30.24R WCI  27
LEXINGTON      MOCLDY    36  26  68 N22       30.31S WCI  25
HOLDREGE       PTCLDY    35  25  67 N16G26    30.28R WCI  25
HEBRON         CLOUDY    38  29  69 NW20G28   30.24R WCI  28

...NEBRASKA PANHANDLE...

CITY           SKY/WX    TMP DP  RH WIND       PRES   REMARKS
CHADRON        MOCLDY    26  23  88 CALM      30.43R
ALLIANCE       CLEAR     26  24  92 N8        30.38R WCI  18
SCOTTSBLUFF    PTCLDY    34  26  72 W14       30.40R WCI  25
SIDNEY         PTCLDY    28  24  85 NW14      30.37R WCI  17

...WESTERN AND NORTH CENTRAL NEBRASKA...

CITY           SKY/WX    TMP DP  RH WIND       PRES   REMARKS
VALENTINE      CLOUDY    34  25  69 NW17G25   30.35R WCI  23
AINSWORTH      CLOUDY    33  25  70 NW24G31   30.33R WCI  21
ONEILL         CLOUDY    37  31  79 NW24G31   30.26R WCI  25
BROKEN BOW     CLOUDY    37  26  64 N22G28    30.29R WCI  26
IMPERIAL       CLEAR     30  24  78 N15       30.36R WCI  19
NORTH PLATTE   CLEAR     28  23  81 NW12      30.35R WCI  18
MCCOOK         CLEAR     31  25  78 N8        30.34R WCI  23

...EASTERN NEBRASKA...

CITY           SKY/WX    TMP DP  RH WIND       PRES   REMARKS
NORFOLK        CLOUDY    36  29  75 NW30G39   30.21R WCI  23
SO SIOUX CITY  CLOUDY    35  28  75 NW29      30.17R WCI  22
TEKAMAH        CLOUDY    37  29  72 NW23G32   30.18R WCI  26
COLUMBUS       CLOUDY    36  25  64 NW24G32   30.23R WCI  24
ALBION         CLOUDY    37  28  70 N22G44    30.23R WCI  26
OMAHA EPPLEY   CLOUDY    36  29  75 NW25G35   30.15R WCI  24
OFFUTT AFB     CLOUDY    37  29  72 NW15G30   30.16R WCI  28
MILLARD        CLOUDY    37  29  74 NW10G23   30.16R WCI  30
LINCOLN        CLOUDY    39  29  67 NW21G33   30.21R WCI  29
NEBRASKA CITY  CLOUDY    36  26  68 N24G36    30.16R WCI  24
BEATRICE       CLOUDY    37  29  74 NW18G24   30.21R WCI  27
FALLS CITY     CLOUDY    37  28  70 NW21G35   30.16R WCI  26

...NORTHERN KANSAS...

CITY           SKY/WX    TMP DP  RH WIND       PRES   REMARKS
GOODLAND       CLEAR     30  26  85 N14       30.36R WCI  19
HILL CITY      CLEAR     35  28  75 N15       30.33R WCI  25
NORTON         SUNNY     34  25  69 NW16      30.31R WCI  23
PHILLIPSBURG   CLEAR     39  28  65 NW16      30.31R WCI  30
SMITH CENTER   CLEAR     34  27  75 NW13      30.29R WCI  25
BELOIT         CLOUDY    39  30  70 NW17      30.27R WCI  30
HAYS           CLEAR     37  25  60 N21G26    30.30R WCI  27
RUSSELL        PTCLDY    38  30  73 N22G31    30.27R WCI  27
CONCORDIA      CLOUDY    39  30  70 N21G32    30.25R WCI  29
SALINA         CLOUDY    43  30  60 N25       30.25R
TOPEKA         CLOUDY    40  32  73 NW20G26   30.18R WCI  30



USA.gov is the U.S. government's official web portal to all federal, state and local government web resources and services.